Date String (YYYY-MM-DD hh:mm:ss) UTC,Instrument flags,Ambient pressure (hPa),Sample flow (lpm),Bypass flow (lpm),Sample temperature (°C),Ambient temperature (°C),ASC tube jacket temperature (°C),LED temperature (°C),Box temperature (°C),Sample RH (%),Span deviation,Mass concentration (μg/m³),Mass concentration (μg/m³),Mass concentration (μg/m³)
DateTimeUTC,F1_M11,P_M11,Q1_M11,Q2_M11,T1_M11,T2_M11,T3_M11,T4_M11,T5_M11,U1_M11,ZSPAN_M11,X0_M11,X2_M11,X1_M11
2022-12-29 14:00:00,,0815.2,5.00,0.00,20.5,18.6,00.0,29.7,22.0,09.6,0000.0,0005.45,0001.23,0001.01
2022-12-29 14:01:00,,0815.1,4.99,0.00,20.5,18.6,00.0,29.6,21.9,09.7,0000.0,0005.52,0001.26,0001.01
2022-12-29 14:02:00,,0815.1,5.00,0.00,20.5,18.5,00.0,29.6,21.9,09.4,0000.0,0004.91,0001.25,0001.01
2022-12-29 14:03:00,,0815.1,5.02,0.00,20.4,18.5,00.0,29.5,21.8,09.2,0000.0,0004.08,0001.21,0001.00
2022-12-29 14:04:00,,0815.1,5.01,0.00,20.4,18.4,00.0,29.5,21.7,09.3,0000.0,0004.10,0001.22,0001.01
2022-12-29 14:05:00,,0815.1,5.03,0.00,20.3,18.3,00.0,29.5,21.7,09.3,0000.0,0004.13,0001.23,0001.01
2022-12-29 14:06:00,,0815.1,4.98,0.00,20.3,18.2,00.0,29.4,21.6,09.6,0000.0,0003.59,0001.21,0001.01
2022-12-29 14:07:00,,0815.2,4.98,0.00,20.2,18.2,00.0,29.4,21.6,09.9,0000.0,0002.69,0001.20,0001.02
2022-12-29 14:08:00,,0815.3,4.99,0.00,20.2,18.2,00.0,29.3,21.6,10.2,0000.0,0002.48,0001.24,0001.03
2022-12-29 14:09:00,,0815.3,5.02,0.00,20.2,18.2,00.0,29.3,21.6,09.9,0000.0,0002.47,0001.27,0001.03
2022-12-29 14:10:00,,0815.4,5.00,0.00,20.1,18.2,00.0,29.3,21.5,10.1,0000.0,0003.00,0001.29,0001.03
2022-12-29 14:11:00,,0815.3,5.02,0.00,20.1,18.2,00.0,29.2,21.5,10.2,0000.0,0003.20,0001.30,0001.01
2022-12-29 14:12:00,,0815.3,4.98,0.00,20.1,18.2,00.0,29.2,21.5,10.1,0000.0,0003.15,0001.28,0001.00
2022-12-29 14:13:00,,0815.3,4.99,0.00,20.0,18.0,00.0,29.1,21.4,09.9,0000.0,0003.14,0001.27,0001.00
2022-12-29 14:14:00,,0815.3,4.98,0.00,20.0,18.0,00.0,29.1,21.3,09.8,0000.0,0003.28,0001.28,0001.00
2022-12-29 14:15:00,,0815.3,5.04,0.00,19.9,17.9,00.0,29.1,21.3,10.1,0000.0,0003.56,0001.27,0000.99
2022-12-29 14:16:00,,0815.7,5.01,0.00,19.9,17.9,00.0,29.0,21.3,10.1,0000.0,0003.96,0001.25,0000.99
2022-12-29 14:17:00,,0815.8,5.00,0.00,19.8,17.8,00.0,29.0,21.2,10.7,0000.0,0003.98,0001.26,0000.98
2022-12-29 14:18:00,,0815.6,4.97,0.00,19.8,17.8,00.0,28.9,21.1,10.9,0000.0,0004.10,0001.27,0000.97
2022-12-29 14:19:00,,0815.7,5.00,0.00,19.7,17.8,00.0,28.9,21.1,11.3,0000.0,0004.16,0001.25,0000.97
2022-12-29 14:20:00,,0816.0,5.04,0.00,19.7,17.8,00.0,28.9,21.1,12.6,0000.0,0004.13,0001.23,0000.97
2022-12-29 14:21:00,,0816.0,5.00,0.00,19.7,17.8,00.0,28.9,21.1,13.4,0000.0,0003.24,0001.24,0000.98
2022-12-29 14:22:00,,0815.7,4.97,0.00,19.6,17.8,00.0,28.8,21.1,13.3,0000.0,0002.82,0001.23,0001.00
2022-12-29 14:23:00,,0816.1,4.97,0.00,19.6,17.8,00.0,28.8,21.1,12.1,0000.0,0002.80,0001.21,0001.00
2022-12-29 14:24:00,,0816.1,5.03,0.00,19.6,17.8,00.0,28.8,21.1,12.7,0000.0,0002.86,0001.23,0001.00
2022-12-29 14:25:00,,0816.1,5.03,0.00,19.5,17.8,00.0,28.7,21.0,12.4,0000.0,0002.85,0001.23,0000.99
2022-12-29 14:26:00,,0816.0,4.98,0.00,19.5,17.7,00.0,28.7,20.9,12.4,0000.0,0002.51,0001.22,0001.00
2022-12-29 14:27:00,,0815.7,4.98,0.00,19.4,17.7,00.0,28.7,20.9,11.5,0000.0,0002.02,0001.21,0000.99
2022-12-29 14:28:00,,0815.7,4.97,0.00,19.4,17.6,00.0,28.6,20.7,11.7,0000.0,0002.00,0001.23,0000.98
2022-12-29 14:29:00,,0815.7,5.02,0.00,19.3,17.5,00.0,28.6,20.6,12.1,0000.0,0002.09,0001.24,0000.98
2022-12-29 14:30:00,,0815.7,5.01,0.00,19.2,17.3,00.0,28.5,20.5,12.3,0000.0,0001.97,0001.22,0000.96
2022-12-29 14:31:00,,0815.8,4.97,0.00,19.1,17.2,00.0,28.5,20.4,12.6,0000.0,0001.92,0001.20,0000.95
2022-12-29 14:32:00,,0815.7,4.98,0.00,19.1,17.2,00.0,28.4,20.4,12.6,0000.0,0001.98,0001.20,0000.94
2022-12-29 14:33:00,,0815.8,5.03,0.00,19.1,17.2,00.0,28.4,20.4,12.6,0000.0,0001.95,0001.20,0000.94
2022-12-29 14:34:00,,0815.7,5.02,0.00,19.0,17.3,00.0,28.3,20.4,12.3,0000.0,0001.97,0001.22,0000.96
2022-12-29 14:35:00,,0815.7,4.98,0.00,19.0,17.3,00.0,28.3,20.4,11.4,0000.0,0003.16,0001.22,0000.98
2022-12-29 14:36:00,,0816.1,4.97,0.00,19.0,17.2,00.0,28.3,20.4,10.9,0000.0,0003.69,0001.26,0001.03
2022-12-29 14:37:00,,0815.5,5.01,0.00,19.0,17.1,00.0,28.2,20.4,10.3,0000.0,0003.74,0001.29,0001.06
2022-12-29 14:38:00,,0815.7,5.04,0.00,18.9,16.9,00.0,28.2,20.3,10.1,0000.0,0003.87,0001.35,0001.11
2022-12-29 14:39:00,,0815.7,5.01,0.00,18.9,16.8,00.0,28.1,20.2,10.6,0000.0,0003.83,0001.37,0001.16
2022-12-29 14:40:00,,0815.8,4.98,0.00,18.8,16.5,00.0,28.1,20.1,11.0,0000.0,0003.68,0001.37,0001.20
2022-12-29 14:41:00,,0815.7,4.99,0.00,18.7,16.4,00.0,28.0,20.0,10.8,0000.0,0003.71,0001.42,0001.24
2022-12-29 14:42:00,,0815.9,4.99,0.00,18.7,16.4,00.0,28.0,20.0,10.7,0000.0,0003.82,0001.48,0001.28
2022-12-29 14:43:00,,0815.7,4.99,0.00,18.6,16.4,00.0,27.9,20.0,10.4,0000.0,0003.78,0001.50,0001.32
2022-12-29 14:44:00,,0815.6,5.03,0.00,18.6,16.3,00.0,27.9,20.0,10.5,0000.0,0003.72,0001.49,0001.35
2022-12-29 14:45:00,,0816.0,4.99,0.00,18.6,16.3,00.0,27.8,20.0,10.4,0000.0,0003.68,0001.50,0001.37
2022-12-29 14:46:00,,0815.5,4.96,0.00,18.5,16.3,00.0,27.8,20.0,10.4,0000.0,0002.98,0001.53,0001.40
2022-12-29 14:47:00,,0815.5,4.98,0.00,18.5,16.3,00.0,27.8,20.0,10.1,0000.0,0001.95,0001.51,0001.40
2022-12-29 14:48:00,,0815.6,5.01,0.00,18.5,16.3,00.0,27.8,20.0,09.9,0000.0,0001.93,0001.51,0001.39
2022-12-29 14:49:00,,0815.5,5.02,0.00,18.5,16.4,00.0,27.7,20.0,10.1,0000.0,0001.86,0001.49,0001.38
2022-12-29 14:50:00,,0815.5,4.98,0.00,18.5,16.4,00.0,27.7,20.0,10.5,0000.0,0001.94,0001.51,0001.38
2022-12-29 14:51:00,,0815.4,4.97,0.00,18.5,16.3,00.0,27.7,20.0,10.6,0000.0,0003.15,0001.54,0001.38
2022-12-29 14:52:00,,0815.6,4.99,0.00,18.5,16.3,00.0,27.7,20.0,10.2,0000.0,0004.47,0001.56,0001.39
2022-12-29 14:53:00,,0815.3,4.98,0.00,18.4,16.2,00.0,27.7,20.0,10.5,0000.0,0004.45,0001.56,0001.40
2022-12-29 14:54:00,,0815.3,4.98,0.00,18.4,16.2,00.0,27.6,20.0,10.5,0000.0,0004.64,0001.61,0001.41
2022-12-29 14:55:00,,0815.4,5.00,0.00,18.4,16.1,00.0,27.6,20.0,11.1,0000.0,0005.11,0001.68,0001.40
2022-12-29 14:56:00,,0815.4,5.02,0.00,18.4,16.1,00.0,27.6,20.0,11.0,0000.0,0005.45,0001.73,0001.41
2022-12-29 14:57:00,,0815.3,4.99,0.00,18.4,16.1,00.0,27.6,20.0,10.4,0000.0,0006.73,0001.79,0001.41
2022-12-29 14:58:00,,0815.1,4.99,0.00,18.4,16.1,00.0,27.6,20.0,10.5,0000.0,0007.41,0001.84,0001.42
2022-12-29 14:59:00,,0815.2,4.98,0.00,18.4,16.0,00.0,27.6,20.0,10.6,0000.0,0009.49,0002.02,0001.43
